Location: Climax
(33.2048°N, 96.4497°W)
Time: 07:45:28
(UTC+00:00)

SL-4 R/B - Pass Details

Date: 12 July 2022
Orbit: 425 x 653 km, 51.6° (Epoch: 14 August)

Event Time Altitude Azimuth Distance (km) Brightness Sun altitude
Rises 02:01:28 0° 210° (SSW) 2,394 5.3 -5.3°
Reaches altitude 10° 02:03:39 10° 203° (SSW) 1,515 4.2 -5.7°
Maximum altitude 02:06:51 40° 132° (SE) 640 1.9 -6.2°
Drops below altitude 10° 02:10:02 10° 61° (ENE) 1,515 4.0 -6.8°
Sets 02:12:13 0° 54° (NE) 2,394 5.1 -7.2°
